{"data":{"norad_id":53807,"epoch":"2026-09-20T14:09:15.094656Z","epoch_age_seconds":142478,"freshness":"FRESH","line1":"1 53807U 22111AL  26263.58975804  .00004195  00000+0  11598-3 0  9990","line2":"2 53807  53.2287 305.7174 0007107 108.1101 252.0680 15.39308093224895","mean_motion":15.39308093,"eccentricity":0.0007107,"inclination_deg":53.2287,"raan_deg":305.7174,"arg_perigee_deg":108.1101,"mean_anomaly_deg":252.068,"bstar":0.00011598,"rev_number":22489,"period_min":93.548523947116,"perigee_km":443.30268342219,"apogee_km":453.00557363228,"semimajor_km":6826.2911285272,"source":"CELESTRAK","updated_at":"2026-09-21T09:00:09.219918Z"}}